Regional Weather Roundup
Issued by NWS

Home | Current Version | Previous Version | Graphics & Text | Print | Product List | Glossary On
Versions: 1 2 3 4 5 6 7 8 9 10 11 12 13 14 15 16 17 18 19 20 21 22 23 24 25 26 27 28 29 30 31 32 33 34 35 36 37 38 39 40 41 42 43 44 45 46 47 48 49 50
000
ASUS45 KCYS 221010
RWRWY

WYOMING REGIONAL WEATHER ROUNDUP
NATIONAL WEATHER SERVICE CHEYENNE WY
300 AM MST MON DEC 22 2014

NOTE:  "FAIR" INDICATES FEW OR NO CLOUDS BELOW 12,000 FEET
WITH NO SIGNIFICANT WEATHER AND/OR OBSTRUCTIONS TO VISIBILITY.

WYZ001-221100-
YELLOWSTONE NATIONAL PARK

CITY           SKY/WX    TMP DP  RH WIND       PRES   REMARKS
LK YELLOWSTONE   N/A     22  17  81 W12G24    29.80S WCI  10
W YELLOWSTONE  NOT AVBL

$$
WYZ002>013-054>058-071-098>099-221100-
NORTHERN WYOMING

CITY           SKY/WX    TMP DP  RH WIND       PRES   REMARKS
JACKSON        CLOUDY    32  21  64 W8G16     29.84S WCI  25
CODY           FAIR      34  18  51 W3        29.74S
GREYBULL       FAIR      24  18  77 W8        29.74S WCI  15
WORLAND        FAIR      22  19  89 S10       29.75S WCI  11
SHERIDAN       CLOUDY    39  20  46 NW20G28   29.69R WCI  29
BUFFALO        MOCLDY    37  14  38 NW29G36   29.68R WCI  25
GILLETTE       FAIR      32  24  72 NW18      29.64F WCI  20
HULETT           N/A    N/A N/A N/A MISG        N/A
NEWCASTLE      FAIR      32  32 100 NW20G25   29.61F WCI  20

$$
WYZ014>020-022>026-101>103-221100-
CENTRAL WYOMING

CITY           SKY/WX    TMP DP  RH WIND       PRES   REMARKS
BIG PINEY      CLOUDY    28  22  78 NW10      29.86R WCI  19
PINEDALE       PTSUNNY   21  21 100 W10       29.85S WCI  10
DUBOIS         NOT AVBL
LANDER         FAIR      28  14  55 W7        29.77S WCI  21
RIVERTON       FAIR      32  19  58 NW22      29.75F WCI  19
CASPER         FAIR      27  21  78 W12       29.74R WCI  17
DOUGLAS        CLOUDY    30  25  81 NW13      29.71S WCI  20

$$
WYZ021-027>030-104>119-221100-
SOUTHERN WYOMING

CITY           SKY/WX    TMP DP  RH WIND       PRES   REMARKS
EVANSTON       CLOUDY    31  26  82 W12       29.96F WCI  22
KEMMERER       FLURRIES  30  27  86 W18       29.90R WCI  18
FORT BRIDGER   CLOUDY    32  27  83 W15G26    29.90F WCI  22
ROCK SPRINGS   FAIR      28  23  81 W15       29.85S WCI  16
DIXON          FAIR      22  18  86 NW8       29.87R WCI  12
RAWLINS        FAIR      21  14  74 NW14      29.79R WCI   8
SARATOGA       FAIR      23  18  80 NW7       29.79R WCI  15
LARAMIE        MOCLDY    23  17  78 NW13      29.71R WCI  11
CHEYENNE       FAIR      29  21  72 NW22G30   29.69R WCI  15
TORRINGTON     CLOUDY   N/A N/A N/A NW15G22   29.67R
PINE BLUFFS    CLOUDY    32  28  86 NW20G25   29.69R WCI  20

$$


USA.gov is the U.S. government's official web portal to all federal, state and local government web resources and services.